Location: Huntsville
(41.2590°N, 111.7678°W)
Time: 05:37:35
(UTC+00:00)

N. Korean satellite - Pass Details

Date: 09 December 2021
Orbit: 447 x 491 km, 97.3° (Epoch: 25 January)

Event Time Altitude Azimuth Distance (km) Brightness Sun altitude
Rises 13:24:45 0° 358° (N) 2,458 9.9 -13.9°
Reaches altitude 10° 13:27:03 10° 344° (NNW) 1,581 8.8 -13.5°
Maximum altitude 13:29:48 23° 289° (WNW) 988 7.5 -13.0°
Drops below altitude 10° 13:32:32 10° 235° (SW) 1,575 8.8 -12.5°
Sets 13:34:49 0° 220° (SW) 2,447 9.9 -12.1°
